Date,TemperatureHighF,TemperatureAvgF,TemperatureLowF,DewpointHighF,DewpointAvgF,DewpointLowF,HumidityHigh,HumidityAvg,HumidityLow,PressureMaxIn,PressureMinIn,WindSpeedMaxMPH,WindSpeedAvgMPH,GustSpeedMaxMPH,PrecipitationSumIn
2013-1-1,49,45,40,41,34,20,88,65,37,30.10,29.90,14,1,16,0.15
2013-1-2,45,41,37,39,30,18,88,66,45,30.21,29.96,15,1,15,0.01
2013-1-3,43,36,30,29,24,18,81,65,39,30.27,30.17,8,1,8,0.00
2013-1-4,46,37,29,25,21,19,83,55,37,30.33,30.21,13,2,19,0.00
2013-1-5,51,40,31,33,24,17,72,53,29,30.42,30.23,12,1,13,0.00
2013-1-6,52,43,34,36,32,29,89,68,45,30.23,30.06,19,1,19,0.02
2013-1-7,49,40,30,30,27,23,86,60,40,30.47,30.18,18,1,18,0.00
2013-1-8,54,38,27,38,31,24,89,77,49,30.49,30.36,15,1,15,0.00
2013-1-9,59,44,32,47,38,30,90,81,62,30.45,30.35,7,0,9,0.00
2013-1-10,58,47,38,45,36,28,90,69,33,30.58,30.42,5,0,6,0.00
2013-1-11,46,43,40,40,37,32,91,81,62,30.45,30.16,13,1,13,0.01
2013-1-12,70,52,41,58,48,38,91,84,62,30.17,30.09,5,0,5,0.00
2013-1-13,71,60,53,59,54,50,92,82,61,30.11,29.98,17,1,18,0.00
2013-1-14,60,55,48,58,52,44,92,89,84,30.26,29.99,17,1,17,0.73
2013-1-15,48,42,38,44,39,36,90,89,88,30.31,30.13,13,3,13,1.97
2013-1-16,47,42,38,44,39,36,91,89,87,30.15,29.95,7,1,8,0.45
2013-1-17,47,40,33,44,37,31,91,89,84,30.18,30.00,11,1,11,1.56
2013-1-18,44,36,30,33,26,16,91,69,36,30.55,30.18,17,1,20,0.18
2013-1-19,52,38,27,32,28,24,90,69,36,30.49,30.11,13,1,14,0.01
2013-1-20,56,43,32,38,29,20,90,63,29,30.10,29.98,20,2,26,0.00
2013-1-21,56,42,31,31,22,5,83,50,25,30.09,29.86,29,3,32,0.00
2013-1-22,34,27,22,9,2,-3,43,34,24,30.32,30.00,20,3,20,0.00
2013-1-23,37,28,19,19,6,-2,58,40,22,30.39,30.10,17,2,17,0.00
2013-1-24,33,28,21,18,6,0,55,39,26,30.57,30.08,27,4,29,0.00
2013-1-25,27,23,20,22,13,4,83,67,46,30.55,30.10,16,2,16,0.00
2013-1-26,44,33,26,27,23,18,89,69,46,30.45,30.10,13,1,13,0.06
2013-1-27,36,31,25,28,22,18,81,70,61,30.64,30.45,11,1,11,0.00
2013-1-28,58,43,34,43,35,26,88,76,51,30.49,30.18,12,1,13,0.17
2013-1-29,73,52,38,51,42,35,90,72,39,30.20,29.99,16,1,16,0.00
2013-1-30,68,61,52,60,55,-100,91,82,72,29.99,29.32,29,5,31,1.69
2013-1-31,53,41,31,47,25,16,84,54,36,29.97,29.35,33,5,33,0.06